#timestamp,LO_Frequency,Hit,StdDev 
1702090815.1,286047002.0,N
1702090816.0,286047002.0,N
1702090835.8,286047002.5,N
1702090855.6,286047002.5,N
1702090875.5,286047001.7,N
1702090895.3,286047002.4,N
1702090915.1,286047000.3,N
1702090935.9,286047001.2,N
1702090955.7,286046999.4,N
1702090975.6,286047000.8,N
1702090995.4,286047000.6,N
1702091015.2,286047000.5,N
1702091035.1,286047002.3,N
1702091036.0,286047002.3,N
1702091055.8,286047002.4,N
1702091075.6,286047002.1,N
1702091095.5,286047002.6,N
1702091115.3,286047002.0,N
1702091135.2,286047001.6,N
1702091155.9,286047002.3,N
1702091175.7,286047002.7,N
1702091195.6,286047000.2,N
1702091215.4,286047002.7,N
1702091235.2,286046999.9,N
1702091255.1,286046999.9,N
1702091256.0,286046999.9,N
1702091275.8,286047000.2,N
1702091295.7,286047000.6,N
1702091315.5,286047000.6,N
1702091335.3,286047000.4,N
1702091355.2,286047000.0,N
1702091375.0,286047000.9,N
1702091375.9,286047000.9,N
1702091395.8,286046998.6,N
1702091415.6,286046998.7,N
1702091435.4,286046998.1,N
1702091455.3,286047001.1,N
1702091475.1,286047002.6,N
1702091495.8,286047001.9,N
1702091515.7,286047002.5,N
1702091535.5,286047001.0,N
1702091555.4,286046999.8,N
1702091575.2,286046999.8,N
1702091595.0,286047000.2,N
1702091595.9,286047000.2,N
1702091615.8,286047000.5,N
1702091635.6,286047000.9,N
1702091655.4,286047000.0,N
1702091675.3,286047000.1,N
1702091695.1,286046998.3,N
1702091715.9,286047000.5,N
1702091735.7,286047000.1,N
1702091755.5,286047000.4,N
1702091775.4,286046998.7,N
1702091795.2,286046999.3,N
1702091815.0,286047000.3,N
1702091815.9,286047000.3,N
1702091835.8,286047000.0,N
1702091855.6,286047000.2,N
1702091875.5,286047000.0,N
1702091895.3,286047001.6,N
1702091915.1,286047002.1,N
1702091935.9,286047001.6,N
1702091955.7,286047001.5,N
1702091975.6,286047001.9,N
1702091995.4,286047001.3,N
1702092015.2,286047002.4,N
1702092035.1,286046999.7,N
1702092036.0,286046999.7,N
1702092055.8,286047002.0,N
1702092075.6,286046999.7,N
1702092095.5,286047000.2,N
1702092115.3,286047000.2,N
1702092135.2,286047002.0,N
1702092155.9,286047001.5,N
1702092175.7,286047004.3,Y
1702092195.6,286047001.3,P
1702092215.4,286047002.3,P
1702092235.2,286047002.7,P
1702092255.1,286047000.5,N
1702092256.0,286047000.5,N
1702092275.8,286046999.9,N
1702092295.7,286047000.9,N
1702092315.5,286047000.3,N
1702092335.3,286047000.1,N
1702092355.2,286047001.8,N
1702092375.0,286047001.3,N
1702092375.9,286047001.3,N
1702092395.8,286047001.7,N
1702092415.6,286047001.3,N
1702092435.4,286047002.6,Y
1702092455.3,286046999.9,P
1702092475.1,286046999.9,N
1702092495.8,286047002.3,P
1702092515.7,286047001.3,N
1702092535.5,286047001.5,N
1702092555.4,286047002.2,N
1702092575.2,286047000.9,N
1702092595.0,286046998.3,N
1702092596.0,286046998.3,N
1702092615.8,286047000.4,N
1702092635.6,286047001.0,N
1702092655.5,286046998.7,N
1702092675.3,286046996.6,N
1702092695.1,286046997.4,N
1702092715.9,286046997.3,N
1702092735.7,286046999.3,N
1702092755.6,286046999.6,N
1702092775.4,286046999.3,N
1702092795.3,286046998.7,N
1702092815.1,286046996.9,N
1702092835.8,286046999.0,N
1702092855.7,286046997.0,N
1702092875.5,286046997.8,N
1702092895.4,286046996.7,N
1702092915.2,286046996.9,N
1702092935.0,286046999.2,N
1702092935.9,286046999.2,N
1702092955.8,286046999.4,N
1702092975.6,286046999.1,N
1702092995.5,286046998.8,N
1702093015.3,286046998.7,N
1702093035.1,286046999.6,N
1702093055.9,286046999.0,N
1702093075.7,286046999.2,N
1702093095.6,286046998.4,N
1702093115.4,286046998.5,N
1702093135.3,286047000.9,N
1702093155.1,286047000.5,N
1702093156.0,286047000.5,N
1702093175.8,286047000.9,N
1702093195.7,286047000.4,N
1702093215.5,286046999.5,N
1702093235.4,286046997.0,N
1702093255.2,286046996.5,N
1702093275.0,286046999.2,N
1702093275.9,286046999.2,N
1702093295.8,286046999.5,N
1702093315.6,286046999.3,N
1702093335.4,286047001.2,N
1702093355.3,286046998.3,N
1702093375.1,286046998.1,N
1702093395.9,286046998.5,N
1702093415.7,286046998.5,N
1702093435.5,286047000.9,N
1702093455.4,286047001.2,N
1702093475.2,286046998.4,N
1702093495.0,286046999.2,N
1702093496.0,286046999.2,N
1702093515.8,286046996.9,N
1702093535.6,286046998.1,N
1702093555.5,286046998.8,N
1702093575.3,286046998.9,N
1702093595.2,286047001.1,N
1702093615.9,286046999.2,N
1702093635.7,286046999.1,N
1702093655.6,286046998.9,N
1702093675.4,286046998.5,N
1702093695.2,286046999.0,N
1702093715.1,286046998.4,N
1702093716.0,286046998.4,N
1702093735.8,286046998.7,N
1702093755.7,286046998.7,N
1702093775.5,286047001.1,N
1702093795.3,286046998.1,N
1702093815.2,286046998.7,N
1702093835.0,286046998.2,N
1702093835.9,286046998.2,N
1702093855.8,286047000.5,N
1702093875.6,286047001.2,N
1702093895.4,286047000.7,N
1702093915.3,286046998.7,N
1702093935.1,286046998.3,N
1702093955.8,286046999.0,N
1702093975.7,286046999.2,N
1702093995.5,286047000.8,N
1702094015.4,286047000.3,N
1702094035.2,286046998.2,N
1702094055.0,286047000.4,N
1702094055.9,286047000.4,N
1702094075.8,286046998.8,N
1702094095.6,286046998.7,N
1702094115.4,286047001.2,N
1702094135.3,286047000.8,N
1702094155.1,286047000.9,N
1702094175.9,286047000.7,N
1702094195.7,286047002.7,N
1702094215.5,286047000.2,N
1702094235.4,286047001.0,N
1702094255.2,286047002.6,N
1702094275.0,286047002.6,N
1702094276.0,286047002.6,N
1702094295.8,286047000.2,N
1702094315.6,286047001.0,N
1702094335.5,286046999.9,N
1702094355.3,286046999.8,N
1702094375.1,286047002.3,N
1702094395.9,286047002.1,N
